Theta_e
311 312 313 314 315 315 316 316 316 317 316 317 318 319 320 321 321 313 304 311 316 322 322 313 310 307 305 302 303 299 290 286 289 290 291 296 294 298 300 295 298 301 299 299 303
311 311 312 313 314 315 316 316 316 317 317 316 317 318 319 320 314 306 314 319 320 322 311 306 304 304 299 299 299 294 289 291 294 294 293 296 295 296 295 295 296 298 300 302 302
312 311 311 312 313 314 315 316 316 316 316 316 317 318 319 318 308 304 317 318 320 321 311 307 308 304 298 298 296 294 291 294 297 298 298 297 295 298 294 293 293 293 296 299 299
313 312 312 311 312 313 314 315 315 315 316 316 316 318 319 313 296 308 319 322 323 317 309 305 305 299 296 294 297 292 296 297 299 299 298 296 297 295 296 295 298 296 298 297 297
315 313 313 313 312 312 314 314 315 315 315 316 315 318 313 303 302 310 318 317 313 310 306 304 301 298 295 295 296 293 295 299 299 299 297 299 295 295 294 297 298 299 299 296 296
316 315 315 313 313 312 313 314 314 314 315 315 315 318 309 296 309 311 310 312 311 309 306 306 303 303 298 297 296 296 297 297 298 298 298 296 294 295 295 297 296 298 295 295 296
317 316 315 314 313 313 313 314 314 314 314 315 315 312 304 300 308 308 311 309 310 309 305 307 306 303 300 296 300 298 293 294 296 297 296 295 290 292 296 297 296 295 294 295 295
317 316 315 315 314 313 313 314 314 314 314 314 315 308 299 309 306 308 309 308 311 312 309 309 307 303 301 300 297 293 291 287 294 296 296 292 284 294 296 295 294 294 294 295 295
317 316 315 315 315 314 314 314 314 314 313 314 306 303 297 311 304 307 307 306 308 310 308 308 305 299 298 292 287 289 283 286 290 296 294 292 286 295 296 295 294 293 293 294 294
317 316 315 315 315 315 315 313 313 312 311 310 307 294 299 299 303 306 306 307 305 305 304 302 297 292 291 288 281 284 283 287 285 292 292 289 290 294 295 294 293 292 292 293 293
317 316 316 316 315 314 309 303 298 296 299 298 297 297 300 303 306 303 306 304 304 299 292 296 289 283 289 291 292 289 286 284 288 293 288 288 289 291 294 294 292 291 292 291 291
317 317 316 315 313 312 306 297 296 297 286 296 298 300 303 304 298 301 305 297 297 291 294 290 285 293 295 293 291 289 285 284 287 291 289 287 287 291 293 294 293 292 291 291 292
317 316 316 315 311 305 302 299 304 301 288 293 296 296 299 301 297 298 301 297 293 291 291 287 291 295 293 290 289 287 284 282 283 289 290 287 283 289 292 294 294 294 294 294 292
318 316 315 311 305 303 297 305 305 304 287 290 291 296 299 299 293 302 302 298 292 290 291 289 293 292 289 289 289 283 290 288 287 283 277 286 275 278 288 289 292 293 293 292 290
312 316 313 313 301 296 299 303 304 301 284 292 292 301 299 293 295 296 301 297 291 290 289 287 289 288 288 289 290 287 289 288 286 283 282 280 274 280 286 286 289 292 293 291 289
310 315 313 305 301 299 301 301 300 289 284 287 291 292 290 293 294 296 297 298 297 291 290 289 292 291 290 290 291 291 288 287 285 283 273 276 277 278 280 285 287 291 293 290 289
308 309 309 307 301 301 301 299 286 285 290 285 286 290 290 288 291 292 291 289 286 281 282 287 287 290 292 287 290 288 283 275 274 272 274 282 278 281 288 290 290 291 289 288 288
305 308 310 307 302 302 301 290 283 288 285 291 289 290 287 290 290 291 288 286 291 288 284 281 279 287 290 288 286 285 283 278 272 274 276 280 276 282 290 292 292 292 290 288 288
305 307 303 301 302 303 294 284 287 289 292 288 288 283 283 289 289 289 288 288 290 290 284 283 282 289 289 289 288 285 281 284 279 274 274 277 281 286 288 288 289 288 287 286 287
298 300 299 301 303 300 290 289 288 295 293 290 285 286 280 283 286 287 286 291 291 292 291 287 282 287 288 289 288 286 287 278 277 270 271 277 278 279 284 286 288 288 287 287 286
299 294 298 302 302 291 284 286 290 296 293 290 287 287 287 284 284 285 286 289 292 291 293 290 286 283 287 284 283 283 281 283 282 279 276 274 278 284 286 288 288 288 290 288 285
292 285 299 301 286 285 284 287 293 293 292 292 291 291 287 287 284 284 286 289 293 291 287 291 285 277 282 285 287 285 283 283 278 277 278 279 278 287 288 289 289 289 291 288 287
285 285 298 298 283 282 285 285 287 289 290 290 289 292 291 287 284 287 288 290 292 291 289 289 279 272 277 282 283 283 285 285 283 280 278 275 278 287 287 288 289 289 290 287 285
285 281 285 287 285 285 284 285 285 289 290 292 291 291 290 287 290 285 285 289 291 291 294 293 285 281 278 281 281 279 281 284 283 277 278 280 280 285 285 287 288 289 289 286 286
284 281 285 281 283 284 287 287 286 283 287 292 288 290 290 285 287 286 286 286 289 292 291 290 277 280 281 282 282 281 282 282 282 284 279 281 283 289 289 286 289 290 289 286 286
283 282 285 284 287 284 284 284 286 286 285 284 287 289 291 288 289 286 286 286 285 287 287 289 281 278 274 281 281 279 281 283 283 285 285 285 284 292 289 287 286 289 290 287 287
289 289 285 282 284 283 283 284 287 291 288 292 290 289 288 291 293 293 292 292 291 286 285 285 282 279 278 278 275 273 278 281 284 284 286 281 287 289 288 289 291 289 291 290 288
Wind_Speed
8 9 10 10 12 13 14 15 15 15 15 15 15 14 14 16 14 2 6 4 7 14 13 7 6 6 2 0 2 3 4 2 3 2 4 2 3 3 2 2 2 4 4 1 8
7 8 10 11 11 13 14 15 16 16 16 17 16 15 15 16 4 7 2 6 9 10 6 7 4 5 2 2 1 4 3 2 3 2 3 3 3 1 3 3 3 1 6 8 8
6 7 9 10 11 12 14 15 16 16 16 16 17 16 15 10 3 2 4 7 9 6 5 4 6 2 1 1 1 1 2 4 2 4 5 2 2 1 1 0 2 2 6 7 5
7 7 7 9 10 11 13 15 15 16 16 16 16 16 16 2 1 0 5 8 10 7 4 3 3 2 3 3 0 2 2 3 3 2 2 2 4 3 5 5 4 3 4 3 7
6 7 8 8 9 11 12 14 15 15 15 16 16 14 6 1 2 1 5 8 5 5 2 2 1 2 2 4 3 0 1 5 5 2 0 3 4 5 5 5 2 5 1 5 5
8 8 8 8 9 10 11 13 14 15 15 15 14 14 0 1 1 2 3 4 6 5 4 5 2 3 3 3 3 2 3 4 3 3 2 1 3 3 2 6 2 5 5 4 4
9 9 8 9 10 10 11 13 15 16 16 15 11 4 3 3 0 1 1 1 2 3 2 3 4 4 1 2 2 2 1 2 5 3 1 3 6 8 6 6 4 4 5 4 2
11 9 9 8 10 11 13 14 16 17 15 10 6 2 4 1 2 2 3 1 3 3 2 3 4 3 3 2 2 1 1 2 1 6 1 4 8 4 9 7 7 6 6 5 4
11 10 9 8 9 10 13 16 17 15 7 7 1 2 5 1 1 1 2 1 1 1 1 2 1 3 2 4 3 1 3 4 2 6 2 3 7 4 8 8 7 7 7 6 4
12 11 10 8 8 9 13 18 12 8 3 3 3 3 1 2 2 1 1 2 0 1 1 0 2 3 2 4 4 3 2 3 2 3 3 5 16 10 9 9 9 7 7 6 3
13 12 10 8 6 7 7 5 2 2 1 5 2 1 4 2 2 2 0 2 2 1 3 1 4 4 7 5 2 1 1 2 1 2 3 7 14 14 9 11 8 8 7 5 3
15 13 10 7 3 3 2 2 2 2 4 3 1 1 3 1 2 4 1 3 3 3 4 4 3 1 6 4 3 3 2 3 5 3 1 6 20 15 11 10 10 10 6 5 1
16 14 11 7 3 1 3 3 2 2 1 2 3 3 2 4 2 5 4 2 4 3 5 5 3 3 2 1 3 2 4 3 3 6 4 7 11 5 4 4 7 5 6 4 4
15 15 13 12 2 3 3 5 2 2 5 4 3 1 2 1 2 1 2 2 1 5 5 3 3 4 2 3 4 2 2 4 2 4 3 5 8 6 4 2 5 6 5 5 6
21 18 21 12 6 3 2 3 2 1 3 2 3 1 2 4 5 0 2 1 3 5 6 3 5 3 3 2 3 3 2 2 1 1 3 4 4 10 2 5 8 8 7 7 6
19 9 20 5 1 2 2 4 1 5 9 3 3 4 4 2 3 3 1 1 2 2 2 3 1 2 2 3 4 5 2 2 2 1 3 4 6 9 4 6 3 4 6 8 7
18 16 12 8 5 7 3 3 3 7 2 5 5 6 3 5 4 5 5 4 5 6 4 3 2 2 3 4 3 2 4 4 6 4 5 2 2 13 6 6 5 9 9 8 7
22 12 3 1 10 11 4 4 6 4 6 4 4 6 6 7 4 5 6 4 7 2 4 6 3 6 4 3 5 5 5 5 5 2 4 2 8 8 4 5 4 8 9 8 7
18 2 5 5 12 7 5 4 7 7 7 10 3 4 3 4 4 5 6 5 8 10 6 5 2 1 4 3 2 4 3 2 5 2 3 4 8 7 2 3 6 9 8 8 7
3 3 2 13 11 6 2 8 6 4 5 3 9 6 8 6 7 6 8 5 3 8 3 1 5 1 0 2 2 2 2 4 3 1 4 6 6 7 6 10 8 9 10 9 7
2 3 2 12 5 3 5 8 6 5 1 6 7 6 6 8 7 6 6 2 1 3 6 2 3 1 2 7 8 3 2 2 2 4 4 3 8 6 5 10 15 11 10 10 11
2 2 4 8 3 3 5 10 7 5 4 2 4 3 8 8 7 6 9 3 2 6 8 3 4 4 7 1 2 4 7 6 5 5 2 1 10 2 5 4 8 8 9 9 11
3 2 1 4 5 3 3 2 5 6 6 6 5 4 3 8 4 5 6 2 3 4 7 6 1 3 8 4 3 5 6 5 3 3 6 6 8 1 3 3 4 8 8 10 10
2 2 1 1 2 3 5 4 6 2 6 6 5 5 3 2 2 7 4 1 5 2 2 6 3 6 8 2 5 5 6 7 7 4 5 11 7 5 6 8 7 6 9 12 13
2 3 2 4 7 4 3 8 9 6 2 5 3 7 8 4 4 5 4 2 4 1 1 5 7 4 5 6 4 6 5 9 13 20 10 5 17 18 15 12 13 11 9 12 13
1 2 1 3 2 9 8 3 12 9 11 6 7 16 15 9 10 10 7 5 6 3 5 2 2 3 5 5 9 9 9 14 18 19 20 18 28 15 11 6 7 11 14 16 16
2 2 1 5 3 3 5 10 2 11 7 9 18 8 15 16 6 6 2 1 7 10 7 8 6 3 4 2 4 8 20 23 16 10 18 17 33 2 6 12 16 12 17 20 18
Wind_Direction
334 344 352 357 1 359 359 2 4 1 357 352 349 347 345 341 323 82 45 338 325 320 327 287 306 267 297 44 346 43 58 275 324 62 151 66 90 4 182 159 127 121 70 281 339
322 331 338 347 351 352 353 355 356 356 355 351 347 344 344 345 347 57 305 324 319 321 344 354 349 340 337 155 338 97 120 191 330 31 76 98 87 128 44 328 75 344 356 2 350
293 315 326 333 338 343 346 347 349 349 350 348 344 340 338 335 15 55 322 321 308 299 255 295 300 300 168 39 16 288 156 161 51 61 41 69 59 140 85 246 157 277 318 331 2
278 288 309 318 325 330 336 338 339 342 343 342 340 335 325 307 171 272 325 306 291 277 278 280 285 288 182 159 14 118 43 53 134 45 20 59 307 298 176 191 164 249 255 3 14
259 265 283 302 313 320 326 329 329 333 334 334 333 331 350 59 170 57 360 332 334 306 12 11 319 310 130 121 344 289 130 66 112 125 220 8 279 235 225 169 148 279 45 58 47
242 248 260 284 302 310 316 323 323 324 325 325 327 325 355 338 176 55 347 9 359 10 22 21 4 315 81 55 83 350 128 136 179 222 239 204 284 8 253 164 207 281 117 86 76
241 241 249 267 290 304 310 316 316 315 316 315 315 315 305 225 49 316 15 230 340 10 103 351 342 38 63 97 288 90 86 273 208 211 216 80 276 228 173 154 230 237 154 124 120
234 238 247 259 280 295 306 310 310 307 309 303 303 315 258 345 330 316 318 220 61 24 89 317 356 84 72 112 77 110 13 289 220 164 186 92 271 206 177 163 234 245 187 176 211
229 232 241 252 271 290 304 304 300 300 300 289 309 192 283 339 188 185 25 103 260 150 353 296 358 124 73 114 28 321 244 217 254 201 136 173 271 215 188 189 228 249 209 202 225
222 228 235 247 269 295 308 300 281 299 264 258 272 24 244 180 122 52 182 287 265 167 338 211 75 89 15 93 212 205 225 292 225 223 219 245 260 251 227 201 217 229 236 210 172
215 220 224 237 258 311 341 350 23 0 253 195 180 215 122 74 83 252 230 269 237 172 163 254 84 205 218 201 182 123 252 287 255 192 260 236 269 264 249 198 206 224 241 212 145
209 205 212 212 239 327 335 274 160 183 313 211 190 149 78 162 160 174 115 193 187 182 145 37 220 207 124 114 106 73 77 275 293 171 242 293 278 276 233 204 190 199 216 187 118
210 197 191 168 93 343 220 273 143 130 158 233 185 193 175 148 241 175 158 200 201 186 172 171 197 158 118 123 142 191 159 239 235 329 279 319 295 337 353 143 173 188 167 156 120
226 185 160 123 134 182 236 150 164 248 51 235 216 197 119 199 226 29 44 178 228 203 179 216 172 149 140 213 161 219 127 156 302 39 265 51 284 307 294 212 191 195 178 191 120
358 172 158 154 136 168 162 101 37 285 288 109 150 318 52 156 132 332 353 358 190 203 108 216 160 164 179 213 146 181 136 146 62 299 351 331 67 271 295 260 237 213 207 155 134
358 190 150 106 8 145 139 108 85 60 241 143 125 151 127 211 158 144 181 279 220 109 90 120 151 156 148 58 74 151 125 90 36 82 15 243 124 285 222 214 230 173 172 153 134
345 339 160 145 192 140 120 71 79 214 1 198 176 156 200 175 174 176 161 193 174 116 199 133 197 105 132 87 18 77 69 351 354 5 225 187 89 247 260 217 200 166 153 154 130
336 309 183 136 132 133 113 76 197 212 170 134 128 142 171 151 204 202 157 206 250 224 130 156 289 174 184 198 181 181 164 160 212 253 281 54 239 253 283 158 146 139 148 142 139
332 220 152 149 146 159 120 200 192 196 166 141 127 130 243 168 157 165 206 208 206 184 156 149 114 44 64 10 124 173 192 193 106 38 43 229 276 287 65 150 126 133 144 162 163
312 282 184 151 155 151 139 229 219 183 114 155 168 149 175 200 163 191 191 229 198 179 151 106 108 159 247 58 61 139 181 70 357 149 275 284 268 243 234 221 201 176 182 177 164
261 258 80 153 149 121 198 204 222 208 130 149 224 155 167 176 178 183 206 298 163 73 145 106 104 226 115 200 180 148 223 188 142 165 191 288 266 207 242 214 202 201 184 178 167
347 237 162 170 144 208 182 175 182 180 134 359 280 152 156 160 167 214 188 175 99 142 155 146 133 181 204 157 144 179 192 171 146 221 231 134 273 330 338 247 173 194 180 176 170
305 262 234 260 204 202 291 178 190 138 159 147 283 256 130 160 145 193 169 261 271 135 160 171 245 49 341 354 344 205 193 183 116 82 210 152 256 326 324 345 178 185 183 168 161
288 254 253 61 277 202 166 213 182 266 146 158 168 13 84 149 115 176 146 237 358 56 152 112 145 189 192 189 120 194 196 188 159 167 186 231 279 232 231 236 244 201 181 171 170
190 261 250 197 223 254 207 183 183 166 212 194 150 180 177 196 122 180 125 101 21 249 357 126 191 198 245 232 203 202 197 193 205 222 194 210 225 245 244 215 218 210 181 173 179
236 259 313 301 253 203 226 232 200 186 162 203 220 189 192 168 190 200 131 188 184 184 168 124 199 114 294 240 220 242 220 220 217 233 241 249 271 248 238 229 204 192 185 193 190
218 281 2 290 314 210 215 215 255 214 219 207 205 167 210 204 147 112 91 235 162 156 161 154 148 141 254 321 359 299 221 217 219 213 221 225 243 121 251 231 231 201 195 197 196